Year,Month,Day,Hour,Minute,Value (Times are PST for barometer in hPa)
2020,08,09,00,00,1020.90
2020,08,09,00,01,1020.80
2020,08,09,00,02,1020.80
2020,08,09,00,03,1020.80
2020,08,09,00,04,1020.80
2020,08,09,00,05,1020.80
2020,08,09,00,06,1020.80
2020,08,09,00,07,1020.80
2020,08,09,00,08,1020.80
2020,08,09,00,09,1020.90
2020,08,09,00,10,1020.80
2020,08,09,00,11,1020.80
2020,08,09,00,12,1020.90
2020,08,09,00,13,1020.90
2020,08,09,00,14,1020.90
2020,08,09,00,15,1020.90
2020,08,09,00,16,1020.90
2020,08,09,00,17,1020.90
2020,08,09,00,18,1020.90
2020,08,09,00,19,1020.90
2020,08,09,00,20,1020.90
2020,08,09,00,21,1020.80
2020,08,09,00,22,1020.80
2020,08,09,00,23,1020.80
2020,08,09,00,24,1020.80
2020,08,09,00,25,1020.80
2020,08,09,00,26,1020.80
2020,08,09,00,27,1020.80
2020,08,09,00,28,1020.80
2020,08,09,00,29,1020.80
2020,08,09,00,30,1020.80
2020,08,09,00,32,1020.80
2020,08,09,00,33,1020.80
2020,08,09,00,34,1020.80
2020,08,09,00,35,1020.90
2020,08,09,00,36,1020.90
2020,08,09,00,37,1020.90
2020,08,09,00,38,1020.90
2020,08,09,00,39,1020.90
2020,08,09,00,40,1020.90
2020,08,09,00,41,1020.90
2020,08,09,00,42,1020.90
2020,08,09,00,43,1020.90
2020,08,09,00,44,1020.90
2020,08,09,00,45,1020.90
2020,08,09,00,46,1020.90
2020,08,09,00,47,1020.90
2020,08,09,00,48,1020.90
2020,08,09,00,49,1020.90
2020,08,09,00,50,1020.90
2020,08,09,00,51,1020.90
2020,08,09,00,52,1020.80
2020,08,09,00,53,1020.80
2020,08,09,00,54,1020.80
2020,08,09,00,55,1020.80
2020,08,09,00,56,1020.70
2020,08,09,00,57,1020.70
2020,08,09,00,58,1020.70
2020,08,09,00,59,1020.80
2020,08,09,01,00,1020.80
2020,08,09,01,01,1020.80
2020,08,09,01,02,1020.80
2020,08,09,01,03,1020.70
2020,08,09,01,04,1020.70
2020,08,09,01,05,1020.70
2020,08,09,01,06,1020.70
2020,08,09,01,07,1020.70
2020,08,09,01,08,1020.60
2020,08,09,01,09,1020.60
2020,08,09,01,10,1020.60
2020,08,09,01,11,1020.60
2020,08,09,01,12,1020.60
2020,08,09,01,13,1020.60
2020,08,09,01,14,1020.60
2020,08,09,01,15,1020.60
2020,08,09,01,16,1020.60
2020,08,09,01,17,1020.60
2020,08,09,01,18,1020.50
2020,08,09,01,19,1020.60
2020,08,09,01,20,1020.60
2020,08,09,01,22,1020.60
2020,08,09,01,23,1020.60
2020,08,09,01,24,1020.60
2020,08,09,01,26,1020.60
2020,08,09,01,27,1020.60
2020,08,09,01,28,1020.70
2020,08,09,01,29,1020.70
2020,08,09,01,31,1020.70
2020,08,09,01,32,1020.70
2020,08,09,01,33,1020.70
2020,08,09,01,34,1020.70
2020,08,09,01,36,1020.70
2020,08,09,01,37,1020.70
2020,08,09,01,38,1020.70
2020,08,09,01,39,1020.70
2020,08,09,01,41,1020.80
2020,08,09,01,42,1020.70
2020,08,09,01,43,1020.70
2020,08,09,01,44,1020.70
2020,08,09,01,46,1020.60
2020,08,09,01,47,1020.70
2020,08,09,01,48,1020.70
2020,08,09,01,49,1020.70
2020,08,09,01,51,1020.70
2020,08,09,01,52,1020.70
2020,08,09,01,53,1020.70
2020,08,09,01,54,1020.80
2020,08,09,01,56,1020.80
2020,08,09,01,57,1020.80
2020,08,09,01,58,1020.80
2020,08,09,01,59,1020.80
2020,08,09,02,01,1020.80
2020,08,09,02,02,1020.70
2020,08,09,02,03,1020.70
2020,08,09,02,04,1020.70
2020,08,09,02,06,1020.80
2020,08,09,02,07,1020.70
2020,08,09,02,08,1020.80
2020,08,09,02,09,1020.70
2020,08,09,02,11,1020.80
2020,08,09,02,12,1020.80
2020,08,09,02,13,1020.80
2020,08,09,02,14,1020.80
2020,08,09,02,16,1020.90
2020,08,09,02,17,1020.90
2020,08,09,02,18,1020.90
2020,08,09,02,19,1020.90
2020,08,09,02,21,1020.90
2020,08,09,02,22,1020.90
2020,08,09,02,23,1020.90
2020,08,09,02,24,1020.90
2020,08,09,02,26,1021.00
2020,08,09,02,27,1021.00
2020,08,09,02,28,1021.00
2020,08,09,02,29,1021.00
2020,08,09,02,31,1021.00
2020,08,09,02,32,1021.00
2020,08,09,02,33,1021.00
2020,08,09,02,34,1021.00
2020,08,09,02,36,1021.00
2020,08,09,02,37,1021.00
2020,08,09,02,38,1021.00
2020,08,09,02,39,1021.00
2020,08,09,02,41,1021.00
2020,08,09,02,42,1021.00
2020,08,09,02,43,1021.00
2020,08,09,02,44,1021.00
2020,08,09,02,46,1021.00
2020,08,09,02,47,1021.00
2020,08,09,02,48,1021.00
2020,08,09,02,49,1021.00
2020,08,09,02,50,1021.00
2020,08,09,02,51,1021.00
2020,08,09,02,52,1021.10
2020,08,09,02,53,1021.10
2020,08,09,02,54,1021.10
2020,08,09,02,55,1021.10
2020,08,09,02,56,1021.10
2020,08,09,02,57,1021.10
2020,08,09,02,58,1021.10
2020,08,09,02,59,1021.10
2020,08,09,03,00,1021.10
2020,08,09,03,01,1021.10
2020,08,09,03,02,1021.10
2020,08,09,03,03,1021.10
2020,08,09,03,04,1021.10
2020,08,09,03,06,1021.10
2020,08,09,03,07,1021.10
2020,08,09,03,08,1021.10
2020,08,09,03,09,1021.10
2020,08,09,03,10,1021.10
2020,08,09,03,11,1021.10
2020,08,09,03,12,1021.10
2020,08,09,03,13,1021.10
2020,08,09,03,14,1021.10
2020,08,09,03,15,1021.10
2020,08,09,03,16,1021.10
2020,08,09,03,17,1021.10
2020,08,09,03,18,1021.10
2020,08,09,03,19,1021.10
2020,08,09,03,20,1021.10
2020,08,09,03,21,1021.10
2020,08,09,03,22,1021.10
2020,08,09,03,23,1021.20
2020,08,09,03,24,1021.20
2020,08,09,03,25,1021.30
2020,08,09,03,26,1021.20
2020,08,09,03,27,1021.20
2020,08,09,03,28,1021.30
2020,08,09,03,29,1021.40
2020,08,09,03,30,1021.40
2020,08,09,03,31,1021.50
2020,08,09,03,32,1021.50
2020,08,09,03,33,1021.50
2020,08,09,03,34,1021.50
2020,08,09,03,35,1021.50
2020,08,09,03,36,1021.50
2020,08,09,03,37,1021.50
2020,08,09,03,38,1021.50
2020,08,09,03,39,1021.50
2020,08,09,03,40,1021.50
2020,08,09,03,41,1021.50
2020,08,09,03,42,1021.50
2020,08,09,03,43,1021.50
2020,08,09,03,44,1021.50
2020,08,09,03,45,1021.50
2020,08,09,03,46,1021.50
2020,08,09,03,47,1021.50
2020,08,09,03,48,1021.50
2020,08,09,03,49,1021.50
2020,08,09,03,50,1021.50
2020,08,09,03,51,1021.60
2020,08,09,03,52,1021.60
2020,08,09,03,53,1021.60
2020,08,09,03,54,1021.60
2020,08,09,03,55,1021.60
2020,08,09,03,56,1021.60
2020,08,09,03,57,1021.60
2020,08,09,03,58,1021.60
2020,08,09,03,59,1021.60
2020,08,09,04,00,1021.60
2020,08,09,04,01,1021.60
2020,08,09,04,02,1021.60
2020,08,09,04,03,1021.60
2020,08,09,04,04,1021.60
2020,08,09,04,05,1021.60
2020,08,09,04,06,1021.60
2020,08,09,04,07,1021.60
2020,08,09,04,08,1021.60
2020,08,09,04,09,1021.60
2020,08,09,04,10,1021.60
2020,08,09,04,11,1021.60
2020,08,09,04,12,1021.60
2020,08,09,04,13,1021.60
2020,08,09,04,14,1021.60
2020,08,09,04,15,1021.60
2020,08,09,04,16,1021.60
2020,08,09,04,17,1021.60
2020,08,09,04,18,1021.60
2020,08,09,04,19,1021.60
2020,08,09,04,20,1021.60
2020,08,09,04,21,1021.60
2020,08,09,04,22,1021.60
2020,08,09,04,23,1021.60
2020,08,09,04,24,1021.60
2020,08,09,04,25,1021.60
2020,08,09,04,26,1021.60
2020,08,09,04,27,1021.60
2020,08,09,04,28,1021.60
2020,08,09,04,29,1021.60
2020,08,09,04,30,1021.60
2020,08,09,04,31,1021.60
2020,08,09,04,32,1021.60
2020,08,09,04,33,1021.60
2020,08,09,04,34,1021.60
2020,08,09,04,35,1021.60
2020,08,09,04,36,1021.60
2020,08,09,04,37,1021.60
2020,08,09,04,38,1021.60
2020,08,09,04,39,1021.60
2020,08,09,04,40,1021.60
2020,08,09,04,41,1021.60
2020,08,09,04,42,1021.60
2020,08,09,04,43,1021.60
2020,08,09,04,44,1021.60
2020,08,09,04,45,1021.60
2020,08,09,04,46,1021.60
2020,08,09,04,47,1021.60
2020,08,09,04,48,1021.60
2020,08,09,04,49,1021.60
2020,08,09,04,50,1021.60
2020,08,09,04,51,1021.60
2020,08,09,04,52,1021.60
2020,08,09,04,53,1021.60
2020,08,09,04,54,1021.60
2020,08,09,04,55,1021.60
2020,08,09,04,56,1021.60
2020,08,09,04,57,1021.60
2020,08,09,04,58,1021.60
2020,08,09,04,59,1021.60
2020,08,09,05,00,1021.70
2020,08,09,05,01,1021.70
2020,08,09,05,02,1021.80
2020,08,09,05,03,1021.80
2020,08,09,05,04,1021.80
2020,08,09,05,05,1021.80
2020,08,09,05,07,1021.80
2020,08,09,05,09,1021.80
2020,08,09,05,11,1021.80
2020,08,09,05,12,1021.80
2020,08,09,05,13,1021.80
2020,08,09,05,14,1021.80
2020,08,09,05,16,1021.90
2020,08,09,05,17,1021.90
2020,08,09,05,18,1022.00
2020,08,09,05,19,1022.00
2020,08,09,05,21,1022.00
2020,08,09,05,22,1022.00
2020,08,09,05,23,1022.00
2020,08,09,05,24,1022.00
2020,08,09,05,26,1022.00
2020,08,09,05,27,1022.00
2020,08,09,05,28,1022.00
2020,08,09,05,29,1022.10
2020,08,09,05,31,1022.00
2020,08,09,05,32,1022.00
2020,08,09,05,33,1022.00
2020,08,09,05,34,1022.00
2020,08,09,05,36,1022.00
2020,08,09,05,37,1022.00
2020,08,09,05,38,1022.10
2020,08,09,05,39,1022.10
2020,08,09,05,41,1022.10
2020,08,09,05,42,1022.10
2020,08,09,05,43,1022.10
2020,08,09,05,44,1022.10
2020,08,09,05,46,1022.10
2020,08,09,05,47,1022.10
2020,08,09,05,48,1022.10
2020,08,09,05,49,1022.10
2020,08,09,05,51,1022.10
2020,08,09,05,52,1022.10
2020,08,09,05,53,1022.20
2020,08,09,05,54,1022.10
2020,08,09,05,56,1022.10
2020,08,09,05,57,1022.10
2020,08,09,05,58,1022.10
2020,08,09,05,59,1022.10
2020,08,09,06,01,1022.10
2020,08,09,06,02,1022.20
2020,08,09,06,03,1022.20
2020,08,09,06,04,1022.20
2020,08,09,06,06,1022.20
2020,08,09,06,07,1022.20
2020,08,09,06,08,1022.20
2020,08,09,06,09,1022.20
2020,08,09,06,11,1022.10
2020,08,09,06,12,1022.20
2020,08,09,06,13,1022.20
2020,08,09,06,14,1022.20
2020,08,09,06,16,1022.20
2020,08,09,06,17,1022.20
2020,08,09,06,18,1022.20
2020,08,09,06,19,1022.20
2020,08,09,06,21,1022.20
2020,08,09,06,22,1022.20
2020,08,09,06,23,1022.20
2020,08,09,06,24,1022.20
2020,08,09,06,26,1022.20
2020,08,09,06,27,1022.20
2020,08,09,06,28,1022.20
2020,08,09,06,29,1022.20
2020,08,09,06,30,1022.30
2020,08,09,06,32,1022.30
2020,08,09,06,33,1022.30
2020,08,09,06,34,1022.30
2020,08,09,06,35,1022.30
2020,08,09,06,36,1022.30
2020,08,09,06,37,1022.40
2020,08,09,06,38,1022.40
2020,08,09,06,39,1022.30
2020,08,09,06,40,1022.40
2020,08,09,06,41,1022.40
2020,08,09,06,42,1022.40
2020,08,09,06,43,1022.40
2020,08,09,06,44,1022.40
2020,08,09,06,45,1022.40
2020,08,09,06,46,1022.40
2020,08,09,06,47,1022.40
2020,08,09,06,48,1022.40
2020,08,09,06,49,1022.40
2020,08,09,06,50,1022.40
2020,08,09,06,51,1022.50
2020,08,09,06,52,1022.50
2020,08,09,06,53,1022.50
2020,08,09,06,54,1022.50
2020,08,09,06,55,1022.60
2020,08,09,06,56,1022.60
2020,08,09,06,57,1022.60
2020,08,09,06,58,1022.60
2020,08,09,06,59,1022.60
2020,08,09,07,00,1022.60
2020,08,09,07,01,1022.60
2020,08,09,07,02,1022.60
2020,08,09,07,03,1022.60
2020,08,09,07,04,1022.60
2020,08,09,07,05,1022.60
2020,08,09,07,06,1022.60
2020,08,09,07,07,1022.60
2020,08,09,07,08,1022.60
2020,08,09,07,09,1022.60
2020,08,09,07,10,1022.60
2020,08,09,07,11,1022.60
2020,08,09,07,12,1022.60
2020,08,09,07,13,1022.60
2020,08,09,07,14,1022.60
2020,08,09,07,15,1022.60
2020,08,09,07,16,1022.60
2020,08,09,07,17,1022.60
2020,08,09,07,18,1022.60
2020,08,09,07,19,1022.60
2020,08,09,07,20,1022.60
2020,08,09,07,21,1022.60
2020,08,09,07,22,1022.60
2020,08,09,07,23,1022.60
2020,08,09,07,24,1022.60
2020,08,09,07,25,1022.60
2020,08,09,07,26,1022.60
2020,08,09,07,27,1022.60
2020,08,09,07,28,1022.60
2020,08,09,07,29,1022.60
2020,08,09,07,30,1022.60
2020,08,09,07,31,1022.60
2020,08,09,07,32,1022.60
2020,08,09,07,33,1022.70
2020,08,09,07,34,1022.70
2020,08,09,07,35,1022.70
2020,08,09,07,36,1022.70
2020,08,09,07,37,1022.70
2020,08,09,07,38,1022.70
2020,08,09,07,39,1022.70
2020,08,09,07,40,1022.70
2020,08,09,07,41,1022.70
2020,08,09,07,42,1022.70
2020,08,09,07,43,1022.70
2020,08,09,07,44,1022.70
2020,08,09,07,45,1022.80
2020,08,09,07,46,1022.80
2020,08,09,07,47,1022.80
2020,08,09,07,48,1022.90
2020,08,09,07,49,1022.90
2020,08,09,07,50,1022.90
2020,08,09,07,51,1022.90
2020,08,09,07,52,1022.90
2020,08,09,07,53,1022.90
2020,08,09,07,54,1022.90
2020,08,09,07,55,1022.90
2020,08,09,07,56,1022.80
2020,08,09,07,57,1022.80
2020,08,09,07,58,1022.80
2020,08,09,07,59,1022.90
2020,08,09,08,00,1022.90
2020,08,09,08,01,1022.90
2020,08,09,08,02,1022.90
2020,08,09,08,03,1022.90
2020,08,09,08,04,1022.90
2020,08,09,08,05,1023.00
2020,08,09,08,06,1023.00
2020,08,09,08,07,1023.00
2020,08,09,08,08,1023.00
2020,08,09,08,09,1023.10
2020,08,09,08,10,1023.10
2020,08,09,08,11,1023.10
2020,08,09,08,12,1023.10
2020,08,09,08,13,1023.10
2020,08,09,08,14,1023.10
2020,08,09,08,15,1023.10
2020,08,09,08,16,1023.10
2020,08,09,08,17,1023.10
2020,08,09,08,18,1023.10
2020,08,09,08,19,1023.10
2020,08,09,08,20,1023.10
2020,08,09,08,21,1023.10
2020,08,09,08,22,1023.10
2020,08,09,08,23,1023.20
2020,08,09,08,24,1023.20
2020,08,09,08,25,1023.20
2020,08,09,08,26,1023.20
2020,08,09,08,27,1023.20
2020,08,09,08,28,1023.20
2020,08,09,08,29,1023.20
2020,08,09,08,30,1023.20
2020,08,09,08,31,1023.10
2020,08,09,08,33,1023.10
2020,08,09,08,34,1023.20
2020,08,09,08,36,1023.20
2020,08,09,08,37,1023.20
2020,08,09,08,38,1023.20
2020,08,09,08,39,1023.20
2020,08,09,08,41,1023.20
2020,08,09,08,42,1023.20
2020,08,09,08,43,1023.20
2020,08,09,08,44,1023.20
2020,08,09,08,46,1023.20
2020,08,09,08,47,1023.20
2020,08,09,08,48,1023.20
2020,08,09,08,49,1023.20
2020,08,09,08,51,1023.20
2020,08,09,08,52,1023.20
2020,08,09,08,53,1023.20
2020,08,09,08,54,1023.20
2020,08,09,08,56,1023.20
2020,08,09,08,57,1023.20
2020,08,09,08,58,1023.20
2020,08,09,08,59,1023.20
2020,08,09,09,01,1023.30
2020,08,09,09,02,1023.30
2020,08,09,09,03,1023.30
2020,08,09,09,04,1023.30
2020,08,09,09,06,1023.40
2020,08,09,09,07,1023.40
2020,08,09,09,08,1023.40
2020,08,09,09,09,1023.50
2020,08,09,09,11,1023.40
2020,08,09,09,12,1023.40
2020,08,09,09,13,1023.30
2020,08,09,09,14,1023.30
2020,08,09,09,16,1023.40
2020,08,09,09,17,1023.40
2020,08,09,09,18,1023.40
2020,08,09,09,19,1023.40
2020,08,09,09,21,1023.30
2020,08,09,09,22,1023.30
2020,08,09,09,23,1023.30
2020,08,09,09,24,1023.30
2020,08,09,09,26,1023.30
2020,08,09,09,27,1023.40
2020,08,09,09,28,1023.40
2020,08,09,09,29,1023.40
2020,08,09,09,31,1023.40
2020,08,09,09,32,1023.40
2020,08,09,09,33,1023.40
2020,08,09,09,34,1023.40
2020,08,09,09,36,1023.40
2020,08,09,09,37,1023.40
2020,08,09,09,38,1023.40
2020,08,09,09,39,1023.40
2020,08,09,09,41,1023.40
2020,08,09,09,42,1023.40
2020,08,09,09,43,1023.40
2020,08,09,09,44,1023.40
2020,08,09,09,46,1023.30
2020,08,09,09,47,1023.30
2020,08,09,09,48,1023.30
2020,08,09,09,49,1023.30
2020,08,09,09,50,1023.30
2020,08,09,09,51,1023.30
2020,08,09,09,52,1023.30
2020,08,09,09,53,1023.30
2020,08,09,09,54,1023.30
2020,08,09,09,55,1023.30
2020,08,09,09,56,1023.30
2020,08,09,09,57,1023.30
2020,08,09,09,58,1023.30
2020,08,09,09,59,1023.30
2020,08,09,10,00,1023.30
2020,08,09,10,01,1023.30
2020,08,09,10,02,1023.30
2020,08,09,10,03,1023.30
2020,08,09,10,04,1023.30
2020,08,09,10,05,1023.30
2020,08,09,10,06,1023.30
2020,08,09,10,07,1023.30
2020,08,09,10,08,1023.30
2020,08,09,10,09,1023.30
2020,08,09,10,10,1023.30
2020,08,09,10,11,1023.30
2020,08,09,10,12,1023.30
2020,08,09,10,13,1023.20
2020,08,09,10,14,1023.20
2020,08,09,10,15,1023.30
2020,08,09,10,16,1023.30
2020,08,09,10,17,1023.20
2020,08,09,10,18,1023.20
2020,08,09,10,19,1023.20
2020,08,09,10,20,1023.20
2020,08,09,10,21,1023.20
2020,08,09,10,22,1023.20
2020,08,09,10,23,1023.20
2020,08,09,10,24,1023.20
2020,08,09,10,25,1023.20
2020,08,09,10,26,1023.20
2020,08,09,10,27,1023.20
2020,08,09,10,28,1023.20
2020,08,09,10,29,1023.20
2020,08,09,10,30,1023.20
2020,08,09,10,31,1023.20
2020,08,09,10,32,1023.20
2020,08,09,10,33,1023.20
2020,08,09,10,34,1023.20
2020,08,09,10,35,1023.20
2020,08,09,10,36,1023.20
2020,08,09,10,37,1023.20
2020,08,09,10,38,1023.20
2020,08,09,10,39,1023.20
2020,08,09,10,40,1023.30
2020,08,09,10,41,1023.30
2020,08,09,10,42,1023.30
2020,08,09,10,43,1023.40
2020,08,09,10,44,1023.40
2020,08,09,10,45,1023.40
2020,08,09,10,46,1023.40
2020,08,09,10,47,1023.50
2020,08,09,10,48,1023.50
2020,08,09,10,49,1023.60
2020,08,09,10,50,1023.50
2020,08,09,10,51,1023.50
2020,08,09,10,52,1023.50
2020,08,09,10,53,1023.50
2020,08,09,10,54,1023.40
2020,08,09,10,55,1023.50
2020,08,09,10,56,1023.50
2020,08,09,10,57,1023.50
2020,08,09,10,58,1023.50
2020,08,09,10,59,1023.50
2020,08,09,11,00,1023.50
2020,08,09,11,01,1023.40
2020,08,09,11,02,1023.40
2020,08,09,11,03,1023.40
2020,08,09,11,04,1023.40
2020,08,09,11,05,1023.40
2020,08,09,11,06,1023.40
2020,08,09,11,07,1023.40
2020,08,09,11,09,1023.40
2020,08,09,11,10,1023.40
2020,08,09,11,12,1023.40
2020,08,09,11,13,1023.40
2020,08,09,11,14,1023.50
2020,08,09,11,16,1023.50
2020,08,09,11,17,1023.50
2020,08,09,11,18,1023.40
2020,08,09,11,19,1023.50
2020,08,09,11,21,1023.40
2020,08,09,11,22,1023.40
2020,08,09,11,23,1023.40
2020,08,09,11,24,1023.50
2020,08,09,11,26,1023.60
2020,08,09,11,27,1023.60
2020,08,09,11,28,1023.60
2020,08,09,11,29,1023.60
2020,08,09,11,31,1023.60
2020,08,09,11,32,1023.60
2020,08,09,11,33,1023.60
2020,08,09,11,34,1023.60
2020,08,09,11,36,1023.50
2020,08,09,11,37,1023.50
2020,08,09,11,38,1023.50
2020,08,09,11,39,1023.50
2020,08,09,11,41,1023.50
2020,08,09,11,42,1023.50
2020,08,09,11,43,1023.50
2020,08,09,11,44,1023.50
2020,08,09,11,46,1023.40
2020,08,09,11,47,1023.40
2020,08,09,11,48,1023.40
2020,08,09,11,49,1023.30
2020,08,09,11,51,1023.40
2020,08,09,11,52,1023.40
2020,08,09,11,53,1023.40
2020,08,09,11,54,1023.40
2020,08,09,11,56,1023.40
2020,08,09,11,57,1023.40
2020,08,09,11,58,1023.40
2020,08,09,11,59,1023.40
2020,08,09,12,01,1023.50
2020,08,09,12,02,1023.50
2020,08,09,12,03,1023.40
2020,08,09,12,04,1023.30
2020,08,09,12,06,1023.40
2020,08,09,12,07,1023.40
2020,08,09,12,08,1023.40
2020,08,09,12,09,1023.40
2020,08,09,12,11,1023.40
2020,08,09,12,12,1023.40
2020,08,09,12,13,1023.40
2020,08,09,12,14,1023.40
2020,08,09,12,16,1023.40
2020,08,09,12,17,1023.40
2020,08,09,12,18,1023.40
2020,08,09,12,19,1023.40
2020,08,09,12,21,1023.40
2020,08,09,12,22,1023.40
2020,08,09,12,23,1023.40
2020,08,09,12,24,1023.40
2020,08,09,12,26,1023.40
2020,08,09,12,27,1023.40
2020,08,09,12,28,1023.40
2020,08,09,12,29,1023.40
2020,08,09,12,30,1023.40
2020,08,09,12,32,1023.40
2020,08,09,12,33,1023.40
2020,08,09,12,34,1023.40
2020,08,09,12,35,1023.40
2020,08,09,12,36,1023.40
2020,08,09,12,37,1023.40
2020,08,09,12,38,1023.30
2020,08,09,12,39,1023.30
2020,08,09,12,40,1023.30
2020,08,09,12,41,1023.20
2020,08,09,12,42,1023.30
2020,08,09,12,43,1023.30
2020,08,09,12,44,1023.30
2020,08,09,12,45,1023.20
2020,08,09,12,46,1023.20
2020,08,09,12,47,1023.20
2020,08,09,12,48,1023.20
2020,08,09,12,49,1023.20
2020,08,09,12,50,1023.20
2020,08,09,12,51,1023.20
2020,08,09,12,52,1023.20
2020,08,09,12,53,1023.20
2020,08,09,12,54,1023.10
2020,08,09,12,55,1023.10
2020,08,09,12,56,1023.10
2020,08,09,12,57,1023.10
2020,08,09,12,58,1023.10
2020,08,09,12,59,1023.10
2020,08,09,13,00,1023.10
2020,08,09,13,01,1023.10
2020,08,09,13,02,1023.10
2020,08,09,13,03,1023.10
2020,08,09,13,04,1023.10
2020,08,09,13,05,1023.10
2020,08,09,13,06,1023.10
2020,08,09,13,07,1023.10
2020,08,09,13,08,1023.10
2020,08,09,13,09,1023.10
2020,08,09,13,10,1023.10
2020,08,09,13,11,1023.10
2020,08,09,13,12,1023.10
2020,08,09,13,13,1023.10
2020,08,09,13,14,1023.10
2020,08,09,13,15,1023.10
2020,08,09,13,16,1023.10
2020,08,09,13,17,1023.10
2020,08,09,13,18,1023.10
2020,08,09,13,19,1023.10
2020,08,09,13,20,1023.10
2020,08,09,13,21,1023.10
2020,08,09,13,22,1023.10
2020,08,09,13,23,1023.10
2020,08,09,13,24,1023.10
2020,08,09,13,25,1023.20
2020,08,09,13,26,1023.20
2020,08,09,13,27,1023.20
2020,08,09,13,28,1023.10
2020,08,09,13,29,1023.10
2020,08,09,13,30,1023.10
2020,08,09,13,31,1023.10
2020,08,09,13,32,1023.10
2020,08,09,13,33,1023.10
2020,08,09,13,34,1023.10
2020,08,09,13,35,1023.10
2020,08,09,13,36,1023.10
2020,08,09,13,37,1023.10
2020,08,09,13,38,1023.10
2020,08,09,13,39,1023.10
2020,08,09,13,40,1023.10
2020,08,09,13,41,1023.10
2020,08,09,13,42,1023.10
2020,08,09,13,43,1023.10
2020,08,09,13,44,1023.10
2020,08,09,13,45,1023.10
2020,08,09,13,46,1023.10
2020,08,09,13,47,1023.10
2020,08,09,13,48,1023.10
2020,08,09,13,49,1023.10
2020,08,09,13,50,1023.10
2020,08,09,13,51,1023.10
2020,08,09,13,52,1023.10
2020,08,09,13,53,1023.10
2020,08,09,13,54,1023.10
2020,08,09,13,55,1023.10
2020,08,09,13,56,1023.10
2020,08,09,13,57,1023.10
2020,08,09,13,58,1023.10
2020,08,09,13,59,1023.00
2020,08,09,14,00,1023.00
2020,08,09,14,01,1023.00
2020,08,09,14,02,1023.00
2020,08,09,14,03,1023.00
2020,08,09,14,04,1022.90
2020,08,09,14,05,1022.90
2020,08,09,14,07,1022.90
2020,08,09,14,09,1022.80
2020,08,09,14,11,1022.70
2020,08,09,14,12,1022.70
2020,08,09,14,13,1022.70
2020,08,09,14,14,1022.70
2020,08,09,14,16,1022.70
2020,08,09,14,17,1022.70
2020,08,09,14,18,1022.70
2020,08,09,14,19,1022.70
2020,08,09,14,21,1022.70
2020,08,09,14,22,1022.70
2020,08,09,14,23,1022.80
2020,08,09,14,24,1022.80
2020,08,09,14,26,1022.70
2020,08,09,14,27,1022.70
2020,08,09,14,28,1022.70
2020,08,09,14,29,1022.70
2020,08,09,14,31,1022.70
2020,08,09,14,32,1022.70
2020,08,09,14,33,1022.70
2020,08,09,14,34,1022.70
2020,08,09,14,36,1022.70
2020,08,09,14,37,1022.70
2020,08,09,14,38,1022.70
2020,08,09,14,39,1022.70
2020,08,09,14,41,1022.70
2020,08,09,14,42,1022.70
2020,08,09,14,43,1022.70
2020,08,09,14,44,1022.70
2020,08,09,14,46,1022.70
2020,08,09,14,47,1022.70
2020,08,09,14,48,1022.70
2020,08,09,14,49,1022.70
2020,08,09,14,51,1022.60
2020,08,09,14,52,1022.60
2020,08,09,14,53,1022.60
2020,08,09,14,54,1022.60
2020,08,09,14,56,1022.60
2020,08,09,14,57,1022.60
2020,08,09,14,58,1022.60
2020,08,09,14,59,1022.60
2020,08,09,15,01,1022.60
2020,08,09,15,02,1022.60
2020,08,09,15,03,1022.60
2020,08,09,15,04,1022.60
2020,08,09,15,06,1022.60
2020,08,09,15,07,1022.60
2020,08,09,15,08,1022.60
2020,08,09,15,09,1022.60
2020,08,09,15,10,1022.60
2020,08,09,15,11,1022.60
2020,08,09,15,12,1022.60
2020,08,09,15,13,1022.60
2020,08,09,15,14,1022.60
2020,08,09,15,15,1022.60
2020,08,09,15,16,1022.60
2020,08,09,15,17,1022.60
2020,08,09,15,18,1022.60
2020,08,09,15,19,1022.60
2020,08,09,15,20,1022.60
2020,08,09,15,21,1022.60
2020,08,09,15,22,1022.60
2020,08,09,15,23,1022.60
2020,08,09,15,24,1022.60
2020,08,09,15,25,1022.60
2020,08,09,15,26,1022.60
2020,08,09,15,27,1022.60
2020,08,09,15,28,1022.60
2020,08,09,15,29,1022.60
2020,08,09,15,30,1022.50
2020,08,09,15,31,1022.60
2020,08,09,15,32,1022.50
2020,08,09,15,33,1022.60
2020,08,09,15,34,1022.50
2020,08,09,15,35,1022.50
2020,08,09,15,36,1022.50
2020,08,09,15,37,1022.50
2020,08,09,15,38,1022.50
2020,08,09,15,39,1022.50
2020,08,09,15,40,1022.50
2020,08,09,15,41,1022.50
2020,08,09,15,42,1022.50
2020,08,09,15,43,1022.50
2020,08,09,15,44,1022.50
2020,08,09,15,45,1022.40
2020,08,09,15,46,1022.40
2020,08,09,15,47,1022.40
2020,08,09,15,48,1022.40
2020,08,09,15,49,1022.40
2020,08,09,15,50,1022.40
2020,08,09,15,51,1022.40
2020,08,09,15,52,1022.40
2020,08,09,15,53,1022.30
2020,08,09,15,54,1022.40
2020,08,09,15,55,1022.30
2020,08,09,15,56,1022.30
2020,08,09,15,57,1022.30
2020,08,09,15,58,1022.30
2020,08,09,15,59,1022.30
2020,08,09,16,00,1022.30
2020,08,09,16,01,1022.30
2020,08,09,16,02,1022.30
2020,08,09,16,03,1022.30
2020,08,09,16,04,1022.30
2020,08,09,16,05,1022.30
2020,08,09,16,06,1022.30
2020,08,09,16,07,1022.20
2020,08,09,16,08,1022.20
2020,08,09,16,09,1022.20
2020,08,09,16,10,1022.20
2020,08,09,16,11,1022.10
2020,08,09,16,12,1022.10
2020,08,09,16,13,1022.10
2020,08,09,16,14,1022.10
2020,08,09,16,15,1022.10
2020,08,09,16,16,1022.10
2020,08,09,16,17,1022.10
2020,08,09,16,18,1022.10
2020,08,09,16,19,1022.10
2020,08,09,16,20,1022.10
2020,08,09,16,21,1022.10
2020,08,09,16,22,1022.10
2020,08,09,16,23,1022.10
2020,08,09,16,24,1022.10
2020,08,09,16,25,1022.00
2020,08,09,16,26,1022.00
2020,08,09,16,27,1022.00
2020,08,09,16,28,1022.00
2020,08,09,16,29,1022.00
2020,08,09,16,30,1022.00
2020,08,09,16,31,1022.00
2020,08,09,16,32,1022.00
2020,08,09,16,33,1022.00
2020,08,09,16,34,1022.00
2020,08,09,16,35,1022.00
2020,08,09,16,36,1022.00
2020,08,09,16,37,1022.10
2020,08,09,16,38,1022.00
2020,08,09,16,39,1022.00
2020,08,09,16,40,1022.00
2020,08,09,16,41,1022.00
2020,08,09,16,42,1022.00
2020,08,09,16,43,1022.00
2020,08,09,16,44,1022.00
2020,08,09,16,45,1022.10
2020,08,09,16,46,1022.00
2020,08,09,16,47,1022.00
2020,08,09,16,48,1022.00
2020,08,09,16,49,1022.00
2020,08,09,16,50,1022.00
2020,08,09,16,51,1022.00
2020,08,09,16,52,1022.00
2020,08,09,16,53,1022.00
2020,08,09,16,54,1022.00
2020,08,09,16,55,1022.00
2020,08,09,16,56,1022.00
2020,08,09,16,58,1022.00
2020,08,09,16,59,1022.00
2020,08,09,17,01,1022.00
2020,08,09,17,02,1022.00
2020,08,09,17,03,1022.00
2020,08,09,17,04,1022.00
2020,08,09,17,06,1021.90
2020,08,09,17,07,1021.90
2020,08,09,17,08,1021.90
2020,08,09,17,09,1021.90
2020,08,09,17,11,1021.90
2020,08,09,17,12,1021.90
2020,08,09,17,13,1021.90
2020,08,09,17,14,1021.90
2020,08,09,17,16,1021.80
2020,08,09,17,17,1021.80
2020,08,09,17,18,1021.70
2020,08,09,17,19,1021.70
2020,08,09,17,21,1021.70
2020,08,09,17,22,1021.60
2020,08,09,17,23,1021.60
2020,08,09,17,24,1021.60
2020,08,09,17,26,1021.60
2020,08,09,17,27,1021.60
2020,08,09,17,28,1021.60
2020,08,09,17,29,1021.60
2020,08,09,17,31,1021.60